(369827) = 1995 BS6 = 2006 XT34 = 2012 HV79

Discovered at Kitt Peak on 1995-01-28 by Spacewatch.

Orbit

Orbit type: Main Belt

Note: WebGL enabled browser required.

epoch2024-03-31.0
epoch JD2460400.5
perihelion date2020-06-19.69513
perihelion JD2459020.19513
argument of perihelion (°)226.37305
ascending node (°)332.81108
inclination (°)3.43532
eccentricity0.1039272
perihelion distance (AU)2.3059970
Tisserand w.r.t. Jupiter3.4
ΔV w.r.t. Earth (km/sec)9.6
semimajor axis (AU)2.5734484
mean anomaly (°)329.53813
mean daily motion (°/day)0.23874300
aphelion distance (AU)2.841
period (years)4.13
P-vector [x]-0.94387311
P-vector [y]-0.28317445
P-vector [z]-0.17004641
Q-vector [x]0.32917153
Q-vector [y]-0.84907457
Q-vector [z]-0.41318093
absolute magnitude16.84
phase slope0.15
uncertainty0
referenceMPEC 2024-E73
observations used381
oppositions18
arc length (days)10629
first opposition used1995
last opposition used2024
residual rms (arc-secs)0.67
perturbers coarse indicatorM-v
perturbers precise indicator003Ek
first observation date used1995-01-28.0
last observation date used2024-03-05.0
computer nameMPCLINUX
JD of orbit computation2456966.806664
perihelion JD uncertainty (days)8.7729E-05
argument of perihelion uncertainty (°)7.3846E-05
ascending node uncertainty (°)7.0861E-05
inclination uncertainty (°)5.5662E-06
eccentricity uncertainty 6.3433E-08
perihelion distance uncertainty (AU)1.5660E-07
Minimum Orbit Intersection Distances (in AU)
for orbit epoch: 2460400.5, reference: E2024-GB3
Mercury1.87428
Venus1.5891
Earth1.30562
Mars0.67415
Jupiter2.12418
Saturn6.35174
Uranus16.0754
Neptune26.9967

Observations

388 total observations over interval: 1995 01 28.31836 – 2024 03 05.221736
These data are available for download (format description).

Date (UT) J2000 RA J2000 Dec Magn Location Ref
1995 01 28.31836 09 52 15.83 +14 27 00.8 20.3 V 691 – Steward Observatory, Kitt Peak-Spacewatch MPC 24829
1995 01 28.34048 09 52 14.65 +14 27 04.9   691 – Steward Observatory, Kitt Peak-Spacewatch MPC 24829
1995 01 28.36266 09 52 13.44 +14 27 08.7   691 – Steward Observatory, Kitt Peak-Spacewatch MPC 24829
1995 02 06.35791 09 44 03.08 +14 55 56.4   691 – Steward Observatory, Kitt Peak-Spacewatch MPC 24829
1995 02 06.38178 09 44 01.64 +14 56 00.9   691 – Steward Observatory, Kitt Peak-Spacewatch MPC 24829
1995 02 06.40571 09 44 00.21 +14 56 06.0 19.6 V 691 – Steward Observatory, Kitt Peak-Spacewatch MPC 24829
1997 10 04.37987 01 31 22.47 +13 45 02.0 21.2 V 691 – Steward Observatory, Kitt Peak-Spacewatch MPS 426085
1997 10 04.40166 01 31 21.28 +13 44 57.2 20.8 V 691 – Steward Observatory, Kitt Peak-Spacewatch MPS 426085
1997 10 04.42324 01 31 20.15 +13 44 52.4 21.0 V 691 – Steward Observatory, Kitt Peak-Spacewatch MPS 426085
1999 01 23.31700 08 32 22.68 +21 40 56.9 19.8 V 691 – Steward Observatory, Kitt Peak-Spacewatch MPS 426085
1999 01 23.33935 08 32 21.20 +21 41 00.1 20.0 V 691 – Steward Observatory, Kitt Peak-Spacewatch MPS 426085
1999 01 23.36227 08 32 19.73 +21 41 03.2 19.9 V 691 – Steward Observatory, Kitt Peak-Spacewatch MPS 426085
2001 10 21.09935 00 22 56.23 +06 14 25.6 22.0 V 691 – Steward Observatory, Kitt Peak-Spacewatch MPS 426085
2001 10 21.12017 00 22 55.22 +06 14 19.5 21.7 V 691 – Steward Observatory, Kitt Peak-Spacewatch MPS 426085
2001 10 21.14092 00 22 54.31 +06 14 13.9 21.9 V 691 – Steward Observatory, Kitt Peak-Spacewatch MPS 426085
2001 10 21.16191 00 22 53.43 +06 14 08.6 21.8 V 691 – Steward Observatory, Kitt Peak-Spacewatch MPS 426085
2001 10 21.18264 00 22 52.44 +06 14 02.8 21.4 V 691 – Steward Observatory, Kitt Peak-Spacewatch MPS 426085
2001 10 21.20343 00 22 51.48 +06 13 57.8 21.2 V 691 – Steward Observatory, Kitt Peak-Spacewatch MPS 426085
2005 08 31.36346 00 11 34.88 +03 21 46.9 20.7 V 691 – Steward Observatory, Kitt Peak-Spacewatch MPS 426085
2005 08 31.38100 00 11 34.11 +03 21 43.5 20.9 V 691 – Steward Observatory, Kitt Peak-Spacewatch MPS 426085
2005 08 31.39848 00 11 33.37 +03 21 40.1 21.0 V 691 – Steward Observatory, Kitt Peak-Spacewatch MPS 426085
2006 12 11.29668 06 31 56.10 +28 02 17.0 21.0 V 691 – Steward Observatory, Kitt Peak-Spacewatch MPS 192635
2006 12 11.31408 06 31 55.09 +28 02 18.3 20.7 V 691 – Steward Observatory, Kitt Peak-Spacewatch MPS 192635
2006 12 11.33147 06 31 54.09 +28 02 19.1 21.1 V 691 – Steward Observatory, Kitt Peak-Spacewatch MPS 192635
2006 12 15.27968 06 28 00.22 +28 05 17.0   691 – Steward Observatory, Kitt Peak-Spacewatch MPS 192635
2006 12 15.29707 06 27 59.10 +28 05 17.6   691 – Steward Observatory, Kitt Peak-Spacewatch MPS 192635
2006 12 15.31445 06 27 58.03 +28 05 18.5   691 – Steward Observatory, Kitt Peak-Spacewatch MPS 192635
2009 09 22.26572 22 59 15.28 -04 50 26.3 20.2 V G96 – Mt. Lemmon Survey MPS 426085
2009 09 22.27198 22 59 15.00 -04 50 27.7 20.6 V G96 – Mt. Lemmon Survey MPS 426085
2009 09 22.27826 22 59 14.71 -04 50 29.2 20.6 V G96 – Mt. Lemmon Survey MPS 426085
2009 09 22.28435 22 59 14.38 -04 50 30.7 20.5 V G96 – Mt. Lemmon Survey MPS 426085
2010 11 05.37471 05 41 40.30 +28 13 28.2   691 – Steward Observatory, Kitt Peak-Spacewatch MPS 426085
2010 11 05.39240 05 41 39.79 +28 13 30.4   691 – Steward Observatory, Kitt Peak-Spacewatch MPS 426085
2010 11 05.41077 05 41 39.31 +28 13 31.2   691 – Steward Observatory, Kitt Peak-Spacewatch MPS 426085
2010 12 15.38544 05 07 11.64 +28 06 01.3 19.9 V G96 – Mt. Lemmon Survey MPS 426085
2010 12 15.39243 05 07 11.17 +28 06 00.3 19.8 V G96 – Mt. Lemmon Survey MPS 426085
2010 12 15.39944 05 07 10.70 +28 05 59.4 19.8 V G96 – Mt. Lemmon Survey MPS 426085
2010 12 15.40648 05 07 10.20 +28 05 58.7 19.9 V G96 – Mt. Lemmon Survey MPS 426085
2012 01 06.62947 13 27 32.716 -10 53 12.29 21.7 w F51 – Pan-STARRS 1, Haleakala MPS 426085
2012 01 06.63476 13 27 33.111 -10 53 15.25 21.8 w F51 – Pan-STARRS 1, Haleakala MPS 426085
2012 01 06.64003 13 27 33.489 -10 53 18.14 21.9 w F51 – Pan-STARRS 1, Haleakala MPS 426085
2012 01 06.64533 13 27 33.889 -10 53 20.97 21.8 w F51 – Pan-STARRS 1, Haleakala MPS 426085
2012 03 13.43553 14 10 25.22 -17 15 30.1 20.3 V 691 – Steward Observatory, Kitt Peak-Spacewatch MPS 426085
2012 03 13.45328 14 10 24.97 -17 15 31.2 20.1 V 691 – Steward Observatory, Kitt Peak-Spacewatch MPS 426085
2012 03 13.47105 14 10 24.68 -17 15 33.3 20.2 V 691 – Steward Observatory, Kitt Peak-Spacewatch MPS 426085
2012 03 17.37486 14 09 18.50 -17 20 07.0 20.1 V 691 – Steward Observatory, Kitt Peak-Spacewatch MPS 426085
2012 03 17.39263 14 09 18.08 -17 20 07.9 20.1 V 691 – Steward Observatory, Kitt Peak-Spacewatch MPS 426085
2012 03 17.41040 14 09 17.70 -17 20 08.6 20.1 V 691 – Steward Observatory, Kitt Peak-Spacewatch MPS 426085
2012 03 30.32722 14 02 30.32 -17 17 04.8   691 – Steward Observatory, Kitt Peak-Spacewatch MPS 426085
2012 03 30.34500 14 02 29.54 -17 17 03.3   691 – Steward Observatory, Kitt Peak-Spacewatch MPS 426085
2012 03 30.36276 14 02 28.74 -17 17 02.0   691 – Steward Observatory, Kitt Peak-Spacewatch MPS 426085
2012 04 03.27703 13 59 36.70 -17 10 39.2 20.1 V 691 – Steward Observatory, Kitt Peak-Spacewatch MPS 425068
2012 04 03.29478 13 59 35.80 -17 10 37.4 20.1 V 691 – Steward Observatory, Kitt Peak-Spacewatch MPS 425068
2012 04 03.31250 13 59 34.93 -17 10 36.2 19.9 V 691 – Steward Observatory, Kitt Peak-Spacewatch MPS 425068
2012 04 29.33630 13 36 37.40 -15 40 14.1 19.3 V G96 – Mt. Lemmon Survey MPS 425068
2012 04 29.34081 13 36 37.15 -15 40 12.9 19.4 V G96 – Mt. Lemmon Survey MPS 425068
2012 04 29.34527 13 36 36.93 -15 40 11.8 19.3 V G96 – Mt. Lemmon Survey MPS 425068
2012 04 29.34981 13 36 36.68 -15 40 10.5 19.4 V G96 – Mt. Lemmon Survey MPS 425068
2012 05 17.21692 13 24 38.24 -14 28 33.0 20.0 R H15 – ISON-NM Observatory, Mayhill MPS 425068
2012 05 17.23217 13 24 37.82 -14 28 30.9 19.6 R H15 – ISON-NM Observatory, Mayhill MPS 425068
2012 05 17.24724 13 24 37.39 -14 28 28.4 19.9 R H15 – ISON-NM Observatory, Mayhill MPS 425068
2012 05 17.26245 13 24 36.96 -14 28 24.0 20.1 R H15 – ISON-NM Observatory, Mayhill MPS 425068
2012 05 20.21615 13 23 23.56 -14 19 01.4 19.9 V G96 – Mt. Lemmon Survey MPS 425068
2012 05 20.22318 13 23 23.38 -14 18 59.8 20.1 V G96 – Mt. Lemmon Survey MPS 425068
2012 05 20.23042 13 23 23.17 -14 18 58.8 19.8 V G96 – Mt. Lemmon Survey MPS 425068
2012 05 20.23743 13 23 23.02 -14 18 57.5 19.9 V G96 – Mt. Lemmon Survey MPS 425068
2013 08 12.45539 22 39 10.574 -08 40 23.88 20.5 w F51 – Pan-STARRS 1, Haleakala MPS 473758
2013 08 12.47092 22 39 09.790 -08 40 27.19 20.5 w F51 – Pan-STARRS 1, Haleakala MPS 473758
2013 08 12.48592 22 39 09.039 -08 40 30.39 20.6 w F51 – Pan-STARRS 1, Haleakala MPS 473758
2013 08 12.50089 22 39 08.288 -08 40 33.58 20.5 w F51 – Pan-STARRS 1, Haleakala MPS 473758
2013 08 18.46388 22 34 08.281 -09 02 42.15 20.2 i F51 – Pan-STARRS 1, Haleakala MPS 473758
2013 08 18.47420 22 34 07.706 -09 02 44.40 20.4 r F51 – Pan-STARRS 1, Haleakala MPS 473758
2013 08 18.48409 22 34 07.192 -09 02 46.59 20.2 r F51 – Pan-STARRS 1, Haleakala MPS 473758
2013 08 26.47647 22 26 58.871 -09 34 22.51 20.1 r F51 – Pan-STARRS 1, Haleakala MPS 474879
2013 08 26.48750 22 26 58.245 -09 34 25.06 20.0 r F51 – Pan-STARRS 1, Haleakala MPS 474879
2013 08 28.24821 22 25 22.57 -09 41 27.8 20.3 G G45 – Space Surveillance Telescope, Atom Site MPS 1610177
2013 08 28.25097 22 25 22.41 -09 41 28.8 20.1 G G45 – Space Surveillance Telescope, Atom Site MPS 1610177
2013 08 28.28181 22 25 20.69 -09 41 35.6 19.8 G G45 – Space Surveillance Telescope, Atom Site MPS 1610177
2013 08 28.31367 22 25 18.84 -09 41 43.6 20.0 G G45 – Space Surveillance Telescope, Atom Site MPS 1610177
2013 08 31.40849 22 22 31.034 -09 53 56.31 20.3 w F51 – Pan-STARRS 1, Haleakala MPS 476146
2013 08 31.42300 22 22 30.224 -09 53 59.81 20.2 w F51 – Pan-STARRS 1, Haleakala MPS 476146
2013 08 31.43746 22 22 29.412 -09 54 03.20 20.3 w F51 – Pan-STARRS 1, Haleakala MPS 476146
2013 08 31.45193 22 22 28.606 -09 54 06.49 20.2 w F51 – Pan-STARRS 1, Haleakala MPS 476146
2013 09 06.26036 22 17 21.36 -10 16 12.2 20.5 V G96 – Mt. Lemmon Survey MPS 477666
